Location: Ferintosh
(52.7647°N, 112.9692°W)
Time: 19:07:04
(UTC+00:00)

Explorer 7 - Pass Details

Date: 24 May 2024
Orbit: 466 x 622 km, 50.3° (Epoch: 16 June)

Event Time Altitude Azimuth Distance (km) Brightness Sun altitude
Rises 07:43:56 0° 254° (WSW) 2,557 - -16.3°
Exits shadow 07:45:56 - 250° (WSW) 1,755 9.2 -16.3°
Reaches altitude 10° 07:46:05 10° 250° (WSW) 1,698 9.1 -16.3°
Maximum altitude 07:49:51 57° 171° (S) 610 6.7 -16.2°
Drops below altitude 10° 07:53:50 10° 93° (E) 1,790 9.5 -16.2°
Sets 07:56:09 0° 90° (E) 2,712 10.5 -16.1°
